Location: �A�n Sefra
(34.9681°N, 0.4346°E)
Time: 12:35:26
(UTC+00:00)

BREEZE M DEB (TANK) - Pass Details

Date: 21 October 2019
Orbit: 281 x 14540 km, 49.5° (Epoch: 17 November)

Event Time Altitude Azimuth Distance (km) Brightness Sun altitude
Rises 19:48:03 0° 305° (NW) 2,496 6.6 -31.7°
Reaches altitude 10° 19:49:23 10° 302° (WNW) 1,893 5.8 -32.0°
Enters shadow 19:52:32 64° 264° (W) 1,029 3.7 -32.6°
